[[{"header":{"parameterUnit":"m.s-1","parameterCategory":1,"la1":30.2991,"la2":30.254,"lo1":-89.0895,"lo2":-89.0444,"dy":0.0017,"dx":0.0017,"nx":28,"ny":28,"refTime":"2025-04-09T09:00:00:Z","depth":0,"parameterNumber":2,"parameterNumberName":"U-component_of_WINDS"},"data":[0,0,0,0,0,0,0,0,0,0,0,0,0,0,0,0,0,0,0,0,0,0,0,0,0,0,0,0,0,0,0,0,0,0,0,0,0,0,0,0,0,0,0,0,0,0,0,0,0,0,0,0,0,0,0,0,0,0,0.8911,0.8912,0,0.8944,0.8945,0.8945,0.8914,0.8913,0.8912,0.8911,0.8946,0.8948,0.8951,0,0,0,0,0,0,0,0,0,0,0,0,0,0.8821,0.8823,0.8911,0.8912,0.8912,0.8944,0.8945,0.8945,0.8914,0.8913,0.8911,0.891,0.8946,0.8948,0.8951,0,0,0,0,0,0,0,0,0,0,0,0,0,0.8858,0.8823,0.8911,0.8901,0.89,0.8944,0.8945,0.8945,0.8915,0.8913,0.8911,0.8909,0.8945,0.8948,0.8951,0.9008,0,0,0.8961,0.8962,0,0,0,0,0,0,0,0,0.8856,0.8861,0.8902,0.8901,0.8901,0.8923,0.8926,0.8966,0.8915,0.8909,0.8911,0.8908,0.894,0.8944,0.8954,0.901,0.9011,0.8961,0.8963,0.8964,0.8965,0,0,0,0,0,0,0,0.8853,0.886,0.8924,0.8902,0.8902,0.8894,0.8897,0.8934,0.8935,0.891,0.8907,0.8912,0.894,0.8951,0.8955,0.9012,0.8961,0.8964,0.8966,0.8967,0.9113,0.9114,0,0,0,0,0,0,0.8852,0.8858,0.8923,0.8925,0.8873,0.8897,0.8901,0.8918,0.8934,0.8935,0.8913,0.891,0.8947,0.8951,0.8956,0.9021,0.8964,0.8967,0.8969,0.9111,0.9113,0.9115,0,0,0,0,0,0,0.885,0.8858,0.8922,0.8891,0.8898,0.8901,0.892,0.892,0.8931,0.8937,0.8937,0.8925,0.8945,0.8951,0.8994,0.9022,0.8969,0.8972,0.9108,0.9111,0.9114,0.9155,0,0,0,0,0,0,0.8848,0.8857,0.8879,0.8892,0.89,0.896,0.8922,0.8922,0.8936,0.8932,0.8948,0.8949,0.8944,0.899,0.8998,0.9026,0.8974,0.9106,0.911,0.9113,0.9151,0.9159,0.9165,0,0,0,0,0,0.8844,0.8891,0.8881,0.8889,0.8928,0.8962,0.8967,0.896,0.8939,0.896,0.8964,0.8948,0.9018,0.8995,0.9003,0.9033,0.9104,0.9109,0.9113,0.9148,0.9157,0.9165,0,0,0,0,0,0,0.8883,0.8892,0.8881,0.8933,0.8947,0.8957,0.8984,0.8971,0.8992,0.8988,0.8979,0.8983,0.9028,0.9035,0.9008,0.9087,0.9057,0.9064,0.9081,0.909,0.9097,0.9094,0.8977,0,0,0,0,0,0.8898,0.8924,0.8931,0.8976,0.8983,0.8982,0.8997,0.8991,0.9005,0.9011,0.9018,0.9033,0.9057,0.9074,0.9098,0.9152,0.9153,0.9176,0.9183,0.9189,0.9194,0.9221,0.923,0.913,0.913,0.9129,0,0,0.8928,0.8936,0.8954,0.8984,0.8994,0.9021,0.8988,0.9019,0.9039,0.9016,0.9056,0.9062,0.9077,0.9125,0.9147,0.9132,0.9222,0.9195,0.9199,0.9202,0.9226,0.9236,0.9244,0.9133,0.9132,0.9132,0,0,0.8997,0.9007,0.9044,0.9054,0.9068,0.9067,0.9076,0.9087,0.9089,0.913,0.9112,0.9136,0.918,0.9191,0.9202,0.9272,0.9258,0.928,0.9318,0.9344,0.9351,0.9358,0.9382,0.939,0.9285,0.9286,0.9286,0,0.9033,0.9074,0.9065,0.9096,0.9109,0.9088,0.9124,0.9135,0.9157,0.9166,0.9149,0.9202,0.9211,0.926,0.9277,0.9287,0.9296,0.9278,0.9351,0.9358,0.9364,0.9386,0.9395,0.9288,0.9288,0.9287,0.9287,0,0.9116,0.9144,0.9173,0.9192,0.9209,0.9243,0.9238,0.9255,0.9247,0.9247,0.9287,0.9297,0.9321,0.9332,0.9325,0.9379,0.937,0.9352,0.9322,0.9376,0.9397,0.9405,0.9292,0.9291,0.929,0.9289,0,0,0.9212,0.9225,0.9235,0.9242,0.9256,0.9277,0.931,0.9332,0.9346,0.9362,0.9388,0.9424,0.9407,0.9419,0.9413,0.9436,0.9488,0.9415,0.9415,0.9427,0.9546,0.9559,0.9569,0.9479,0.948,0.9481,0.9544,0,0.928,0.9336,0.9327,0.938,0.9405,0.9384,0.9412,0.9423,0.9423,0.9444,0.9445,0.947,0.9446,0.9454,0.9475,0.9477,0.9512,0.9473,0.9502,0.9503,0.9498,0.958,0.9593,0.9652,0.9553,0.9554,0.9555,0,0.9368,0.9384,0.9439,0.9446,0.9456,0.9481,0.9499,0.952,0.9531,0.953,0.9543,0.9531,0.9563,0.9532,0.9575,0.9548,0.9559,0.9562,0.9564,0.9566,0.9532,0.9583,0.9671,0.968,0.9568,0.9567,0.9566,0,0.943,0.9466,0.9503,0.951,0.952,0.9537,0.9542,0.9552,0.9564,0.958,0.9588,0.9608,0.9619,0.9635,0.9628,0.9607,0.9671,0.9641,0.967,0.967,0.9685,0.9684,0.9775,0.9694,0.9694,0.9694,0.9693,0,0.9506,0.9541,0.953,0.9553,0.959,0.958,0.9617,0.9619,0.9627,0.9649,0.9633,0.9654,0.9645,0.9666,0.9661,0.9696,0.9701,0.97,0.9699,0.9701,0.9701,0.9708,0.9704,0.9696,0.9695,0.9695,0.9694,0,0.9582,0.9577,0.9616,0.962,0.9622,0.9649,0.9653,0.9674,0.9672,0.97,0.9706,0.9704,0.9727,0.9722,0.9748,0.9745,0.9788,0.9782,0.9784,0.9782,0.9811,0.9808,0.991,0.9922,0.9833,0.9834,0.9835,0,0.9631,0.9656,0.9663,0.9676,0.9681,0.9703,0.9715,0.9705,0.9719,0.9732,0.9751,0.9772,0.9788,0.9826,0.9827,0.9846,0.9839,0.9873,0.9842,0.9843,0.9838,0.9836,0.9838,0.9879,0.988,0.9881,0.9882,0,0.9717,0.9713,0.9731,0.9747,0.9762,0.9775,0.9786,0.9798,0.9788,0.9804,0.9826,0.9839,0.9864,0.9885,0.9902,0.9907,0.9893,0.9892,0.9899,0.9902,0.9901,0.99,0.9799,0.9889,0.9889,0.9888,0.9888,0.9887,0.978,0.9801,0.9807,0.9827,0.9834,0.9844,0.9863,0.9863,0.9881,0.99,0.9893,0.9918,0.9926,0.9947,0.9954,0.9973,0.9961,0.9972,0.9975,0.9978,0.998,0.9899,0.9977,0.9977,0.9976,0.9976,0.9976,0,0.9864,0.9867,0.9885,0.99,0.9915,0.9899,0.991,0.9924,0.9946,0.9955,0.997,0.9995,1.0014,1.0015,1.0033,1.0048,1.0042,1.0053,1.0052,1.0053,0.9992,0.9982,1.0058,1.0058,1.0058,1.0058,1.0058,1.0058,0.991,0.9942,0.9938,0.9974,0.9976,1.0,1.0007,1.0016,1.0022,1.005,1.0066,1.0066,1.0071,1.0089,1.0105,1.0105,1.0112,1.0125,1.0123,1.0066,1.0057,1.005,1.0041,1.0127,1.0127,1.0182,1.0182,1.0183]},{"header":{"parameterUnit":"m.s-1","parameterCategory":1,"la1":30.2991,"la2":30.254,"lo1":-89.0895,"lo2":-89.0444,"dy":0.0017,"dx":0.0017,"nx":28,"ny":28,"refTime":"2025-04-09T09:00:00:Z","depth":0,"parameterNumber":3,"parameterNumberName":"V-component_of_WINDS"},"data":[0,0,0,0,0,0,0,0,0,0,0,0,0,0,0,0,0,0,0,0,0,0,0,0,0,0,0,0,0,0,0,0,0,0,0,0,0,0,0,0,0,0,0,0,0,0,0,0,0,0,0,0,0,0,0,0,0,0,3.3402,3.3401,0,3.3338,3.3337,3.3337,3.3228,3.3226,3.3224,3.3222,3.3157,3.3158,3.3158,0,0,0,0,0,0,0,0,0,0,0,0,0,3.3428,3.3428,3.3402,3.3401,3.34,3.3338,3.3337,3.3337,3.3228,3.3226,3.3223,3.3221,3.3157,3.3158,3.3158,0,0,0,0,0,0,0,0,0,0,0,0,0,3.3396,3.3428,3.3402,3.3339,3.3332,3.3338,3.3337,3.3336,3.3229,3.3226,3.3223,3.322,3.3157,3.3158,3.3158,3.3221,0,0,3.3159,3.3159,0,0,0,0,0,0,0,0,3.3398,3.3395,3.3349,3.3343,3.3336,3.3288,3.3323,3.3298,3.323,3.3268,3.3222,3.3218,3.3203,3.32,3.3194,3.3218,3.3215,3.3159,3.3159,3.3159,3.3159,0,0,0,0,0,0,0,3.34,3.3397,3.3376,3.3348,3.334,3.3313,3.3305,3.3317,3.3254,3.3265,3.3257,3.3251,3.3199,3.3194,3.3192,3.3214,3.3159,3.3159,3.3159,3.3159,3.3281,3.3284,0,0,0,0,0,0,3.3412,3.34,3.3378,3.3375,3.336,3.3315,3.3306,3.3306,3.3253,3.3242,3.3253,3.3246,3.3196,3.3192,3.3189,3.3257,3.3159,3.3159,3.3159,3.3278,3.3282,3.3285,0,0,0,0,0,0,3.3413,3.3411,3.3381,3.3385,3.3379,3.3318,3.3319,3.3307,3.3302,3.3245,3.3233,3.326,3.3193,3.3189,3.3213,3.3253,3.3159,3.316,3.3275,3.328,3.3284,3.3394,0,0,0,0,0,0,3.3414,3.3412,3.3436,3.3386,3.3379,3.3406,3.3322,3.3308,3.3302,3.3292,3.3248,3.3238,3.319,3.3213,3.3213,3.3252,3.316,3.3271,3.3277,3.3282,3.3387,3.3402,3.3415,0,0,0,0,0,3.3415,3.347,3.3437,3.3435,3.3408,3.3409,3.3405,3.3349,3.3306,3.3329,3.3292,3.3239,3.3249,3.3216,3.3216,3.3255,3.3268,3.3275,3.3282,3.338,3.3399,3.3415,0,0,0,0,0,0,3.3526,3.3462,3.3425,3.3466,3.3444,3.3391,3.3418,3.3371,3.3361,3.3352,3.3283,3.3274,3.3306,3.3283,3.3248,3.3311,3.325,3.3257,3.3325,3.3342,3.3357,3.3361,3.316,0,0,0,0,0,3.3556,3.3562,3.3506,3.3547,3.3538,3.348,3.3479,3.3437,3.3411,3.3402,3.3366,3.3343,3.334,3.334,3.3335,3.3383,3.337,3.3409,3.3424,3.3436,3.3442,3.3463,3.3479,3.3308,3.3308,3.3308,0,0,3.3616,3.3582,3.3591,3.3569,3.3546,3.3554,3.3473,3.3485,3.349,3.3403,3.3423,3.3396,3.3365,3.3401,3.3415,3.3383,3.3487,3.3445,3.3455,3.3454,3.3472,3.3488,3.3502,3.3313,3.3312,3.3311,0,0,3.373,3.3706,3.3736,3.3715,3.3682,3.3643,3.365,3.3604,3.3582,3.3601,3.3535,3.354,3.3538,3.3517,3.3507,3.3611,3.3561,3.3611,3.3685,3.3706,3.3719,3.3731,3.3766,3.3779,3.3618,3.3618,3.3618,0,3.3809,3.3818,3.3758,3.3773,3.3764,3.3686,3.3715,3.3698,3.3665,3.3661,3.3625,3.3618,3.3593,3.3621,3.3646,3.3641,3.3645,3.3615,3.3723,3.3733,3.3743,3.3776,3.3789,3.3624,3.3624,3.3623,3.3622,0,3.3917,3.3924,3.3952,3.3921,3.3916,3.3939,3.388,3.3882,3.3841,3.3805,3.3823,3.3789,3.3774,3.3778,3.3739,3.38,3.3781,3.3735,3.3672,3.3767,3.3796,3.3808,3.3633,3.3631,3.3629,3.3628,0,0,3.41,3.4033,3.4045,3.4028,3.3985,3.3989,3.4008,3.3992,3.3994,3.3974,3.3986,3.3985,3.3941,3.3929,3.3887,3.3905,3.3987,3.3857,3.3855,3.388,3.4049,3.4083,3.4098,3.3953,3.3956,3.3957,3.4051,0,3.4203,3.423,3.4175,3.4215,3.422,3.4144,3.4159,3.4134,3.4101,3.4099,3.4062,3.4061,3.4005,3.3997,3.4012,3.3974,3.4019,3.3966,3.3963,3.3963,3.3972,3.4114,3.415,3.424,3.4062,3.4064,3.4066,0,3.4328,3.4312,3.4353,3.4305,3.4305,3.432,3.43,3.43,3.4269,3.4243,3.4229,3.4178,3.4191,3.4131,3.4146,3.4111,3.4106,3.4087,3.4089,3.4085,3.402,3.4113,3.4268,3.4281,3.4083,3.4082,3.4081,0,3.4455,3.4444,3.4466,3.4455,3.4401,3.4412,3.439,3.4356,3.4349,3.4332,3.4326,3.4311,3.4303,3.4291,3.4237,3.4199,3.4258,3.4194,3.4236,3.4237,3.4251,3.4251,3.4406,3.4251,3.4251,3.425,3.425,0,3.4575,3.4603,3.4522,3.4536,3.4563,3.4499,3.4528,3.4498,3.4468,3.4473,3.4407,3.4413,3.4342,3.434,3.4298,3.4315,3.4312,3.4291,3.4279,3.4296,3.4298,3.4291,3.4283,3.4254,3.4253,3.4252,3.4252,0,3.4722,3.4669,3.4688,3.4634,3.4621,3.4644,3.4596,3.4606,3.4568,3.4575,3.4573,3.4513,3.4507,3.4452,3.4434,3.4405,3.4439,3.4415,3.4449,3.4441,3.4485,3.4481,3.464,3.4656,3.4493,3.4494,3.4496,0,3.4802,3.4821,3.4768,3.4767,3.4747,3.4747,3.4739,3.4676,3.467,3.4635,3.4648,3.4637,3.4624,3.4618,3.4572,3.4557,3.4532,3.4588,3.4529,3.4545,3.453,3.4529,3.453,3.4601,3.4603,3.4605,3.4606,0,3.4948,3.4921,3.4913,3.4895,3.4888,3.4871,3.485,3.4853,3.4783,3.478,3.4773,3.4763,3.4743,3.4732,3.4709,3.4684,3.4633,3.4625,3.4633,3.4651,3.4669,3.4657,3.4482,3.4622,3.462,3.4619,3.4618,3.4618,3.5062,3.5075,3.5039,3.5032,3.5009,3.499,3.4996,3.4958,3.4951,3.493,3.4892,3.489,3.4855,3.4819,3.4798,3.4794,3.4765,3.4778,3.478,3.4784,3.4792,3.467,3.479,3.479,3.4789,3.4789,3.4788,0,3.5204,3.5177,3.5171,3.5143,3.5136,3.5089,3.5062,3.506,3.5059,3.5031,3.5019,3.501,3.4997,3.495,3.4933,3.4938,3.4914,3.4936,3.4934,3.4929,3.4821,3.4815,3.4955,3.4955,3.4955,3.4955,3.4955,3.4955,3.5277,3.5294,3.5263,3.5267,3.5239,3.5237,3.5225,3.5207,3.5184,3.5176,3.5166,3.5135,3.5098,3.5077,3.5063,3.5049,3.5045,3.5074,3.5052,3.4953,3.4937,3.4921,3.4915,3.5074,3.5074,3.516,3.516,3.5161]}]]